Overview Statistics Trail Chart Weather Telemetry Raw packets
 

This is the latest recevied weather packets stored in our database for station/object MB7UUE. If no packets are shown the sender has not sent any weather packets the latest 10 day(s).

<< 7 8 9 10 11 12 13 >>
Time Temp. Humidity Pressure Rain* Wind** Luminosity Snow
1788606654 20° C 47% 1023.3 hPa 0 mm - - -
1788605986 20° C 50% 1023.4 hPa 0 mm - - -
1788605513 19.44° C 52% 1023.3 hPa 0 mm - - -
1788604847 19.44° C 52% 1023.4 hPa 0 mm - - -
1788604382 19.44° C 54% 1023.3 hPa 0 mm - - -
1788603706 18.89° C 54% 1023.2 hPa 0 mm - - -
1788603233 18.89° C 55% 1023.2 hPa 0 mm - - -
1788602566 18.89° C 56% 1023.1 hPa 0 mm - - -
1788602094 18.33° C 57% 1023.1 hPa 0 mm - - -
1788601425 18.33° C 58% 1023.1 hPa 0 mm - - -
1788600953 18.33° C 59% 1023.1 hPa 0 mm - - -
1788600286 18.33° C 60% 1023 hPa 0 mm - - -
1788599814 17.78° C 61% 1022.8 hPa 0 mm - - -
1788599147 17.78° C 61% 1022.7 hPa 0 mm - - -
1788598674 17.78° C 62% 1022.8 hPa 0 mm - - -
1788598006 17.22° C 63% 1022.7 hPa 0 mm - - -
1788597533 17.22° C 64% 1022.7 hPa 0 mm - - -
1788596866 17.22° C 66% 1022.7 hPa 0 mm - - -
1788596394 16.67° C 68% 1022.6 hPa 0 mm - - -
1788595725 16.67° C 68% 1022.4 hPa 0 mm - - -
1788595254 16.11° C 70% 1022.3 hPa 0 mm - - -
1788594604 15.56° C 73% 1022.2 hPa 0 mm - - -
1788594114 15.56° C 73% 1022.2 hPa 0 mm - - -
1788593446 15.56° C 73% 1022.2 hPa 0 mm - - -
1788592973 15.56° C 74% 1022.2 hPa 0 mm - - -

* Rain latest hour (hover to see other rain measurements)
** Current wind speed in m/s (hover to see current wind gust speed)